BEIDOU 18               
1 40748U 15037A   19257.48747762 -.00000089  00000-0  00000-0 0  9996
2 40748  55.8643  25.6991 0005648 258.8211 160.5411  1.86231304 28161
BEIDOU 19               
1 40749U 15037B   19259.41055785 -.00000078  00000-0  00000+0 0  9996
2 40749  55.8647  25.6235 0003105 286.9728  99.4797  1.86234252 28193
CZ-3B R/B               
1 40750U 15037C   19259.39284965  .00000098  00000-0  14861-3 0  9994
2 40750  55.0259 243.9623 5448282 324.1487   9.2339  4.79489816 71780
YZ-1 R/B                
1 40751U 15037D   19259.13555982 -.00000059  00000-0  00000-0 0  9992
2 40751  56.0681  40.8051 0931163  43.3522 323.5772  1.56591357 23719